Clayton Lake, ME

4:54 AM EDT on March 26, 2017 (GMT -0400)
Clayton Lake

Weather History for K40B - November, 2012

Change the Weather History Date:

Thursday, November 8, 2012

  Actual Average Record
Temperature  
Mean Temperature 29 °F -  
Max Temperature 34 °F 36 °F 60 °F (2016)
Min Temperature 25 °F 22 °F 9 °F (2002)
Degree Days  
Heating Degree Days 36    
Moisture  
Dew Point 27 °F    
Average Humidity 86    
Maximum Humidity 100    
Minimum Humidity 80    
Precipitation  
Precipitation 0.03 in - - ()
Sea Level Pressure  
Sea Level Pressure 30.02 in    
Wind  
Wind Speed 3 mph (North)    
Max Wind Speed 7 mph    
Max Gust Speed 20 mph    
Averages and records for this station are not official NWS values.
T = Trace of Precipitation, MM = Missing Value Source: NWS Daily Summary

Daily Weather History Graph

Daily Weather History Graph

Search for Another Location

Airport or City:

Trip Planner

Search our weather history database for the weather conditions in past years. The results will help you decide how hot, cold, wet, or windy it might be!

Date:

Astronomy

Nov. 08, 2012 Rise Set
Actual Time 6:30 AM EST 4:12 PM EST
Civil Twilight 5:58 AM EST 4:44 PM EST
Nautical Twilight 5:22 AM EST 5:20 PM EST
Astronomical Twilight 4:46 AM EST 5:56 PM EST
Moon 12:01 AM EST (11/8) 1:10 PM EST (11/8)
Length of Visible Light 10h 46m
Length of Day
9h 41m
Waning Crescent, 33% of the Moon is Illuminated
Nov 8
Waning Crescent
Nov 13
New
Nov 20
First Quarter
Nov 28
Full
Dec 6
Last Quarter

Hourly Weather History & Observations

Time (EST) Temp. Windchill Dew Point Humidity Pressure Visibility Wind Dir Wind Speed Gust Speed Precip Events Conditions
12:25 AM 25.9 °F 21.7 °F 20.5 °F 80% 30.17 in - Variable 3.5 mph - 0.00 in   Unknown
1:25 AM 26.8 °F 22.8 °F 21.4 °F 80% 30.15 in - Variable 3.5 mph - N/A   Unknown
2:25 AM 27.7 °F 23.8 °F 22.5 °F 81% 30.12 in - Variable 3.5 mph - N/A   Unknown
3:25 AM 27.9 °F 22.6 °F 22.8 °F 81% 30.11 in - Variable 4.6 mph - N/A   Unknown
4:25 AM 28.4 °F - 23.4 °F 81% 30.10 in - Calm Calm - N/A   Unknown
5:25 AM 28.8 °F 25.0 °F 23.7 °F 81% 30.09 in - Variable 3.5 mph - N/A   Unknown
6:26 AM 28.8 °F 23.7 °F 23.9 °F 82% 30.09 in - Variable 4.6 mph 13.8 mph N/A   Unknown
7:25 AM 28.4 °F 22.2 °F 25.3 °F 88% 30.09 in - Variable 5.8 mph 11.5 mph N/A   Unknown
8:25 AM - - - N/A% 30.07 in - Variable 2.3 mph - 0.01 in   Unknown
9:25 AM - - - N/A% 30.07 in - Variable 2.3 mph - 0.02 in   Unknown
10:25 AM 31.1 °F 25.4 °F 28.8 °F 91% 30.06 in - Variable 5.8 mph 16.1 mph N/A   Unknown
11:25 AM 32.4 °F 26.0 °F 29.1 °F 88% 30.03 in - North 6.9 mph 13.8 mph N/A   Unknown
12:27 PM 33.4 °F 27.3 °F 28.8 °F 83% 30.01 in - Variable 6.9 mph 16.1 mph N/A   Unknown
1:25 PM 33.8 °F 27.7 °F 28.8 °F 82% 29.98 in - Variable 6.9 mph 19.6 mph N/A   Unknown
2:25 PM 33.4 °F 29.1 °F 28.2 °F 81% 29.99 in - Variable 4.6 mph 13.8 mph N/A   Unknown
3:26 PM 32.9 °F 29.8 °F 28.4 °F 84% 29.96 in - Variable 3.5 mph - N/A   Unknown
4:25 PM 32.9 °F 28.5 °F 28.8 °F 85% 29.97 in - Variable 4.6 mph - N/A   Unknown
5:25 PM 31.5 °F - - N/A% 29.94 in - Calm Calm - 0.00 in   Unknown
6:27 PM 31.5 °F 26.8 °F 31.6 °F 100% 29.94 in - Variable 4.6 mph 11.5 mph N/A   Unknown
7:25 PM 31.6 °F - 29.5 °F 92% 29.94 in - Calm Calm - N/A   Unknown
8:27 PM 31.3 °F - 29.3 °F 92% 29.93 in - Calm Calm - 0.00 in   Unknown
9:25 PM 31.3 °F - - N/A% 29.92 in - Calm Calm - N/A   Unknown
10:25 PM 31.6 °F - 30.2 °F 94% 29.91 in - Calm Calm - N/A   Unknown
11:25 PM 31.3 °F - - N/A% 29.91 in - Calm Calm - N/A   Unknown